TimeMST,TemperatureF,Dew PointF,Humidity,Sea Level PressureIn,VisibilityMPH,Wind Direction,Wind SpeedMPH,Gust SpeedMPH,PrecipitationIn,Events,Conditions,WindDirDegrees,DateUTC
12:53 AM,19.9,16.0,85,30.08,10.0,South,8.1,-,N/A,,Clear,170,2013-01-26 07:53:00
1:53 AM,12.9,10.0,88,30.09,10.0,SW,6.9,-,N/A,,Clear,230,2013-01-26 08:53:00
2:53 AM,19.0,15.1,85,30.08,10.0,South,4.6,-,N/A,,Clear,180,2013-01-26 09:53:00
3:53 AM,12.9,10.0,88,30.08,10.0,Calm,Calm,-,N/A,,Clear,0,2013-01-26 10:53:00
4:53 AM,14.0,10.9,88,30.09,10.0,Calm,Calm,-,N/A,,Clear,0,2013-01-26 11:53:00
5:53 AM,12.0,8.1,84,30.09,10.0,SSW,12.7,-,N/A,,Clear,210,2013-01-26 12:53:00
6:53 AM,15.1,12.0,88,30.10,10.0,South,3.5,-,N/A,,Clear,190,2013-01-26 13:53:00
7:53 AM,16.0,12.0,84,30.10,10.0,SW,6.9,-,N/A,,Clear,220,2013-01-26 14:53:00
8:53 AM,19.0,15.1,85,30.08,10.0,SSW,5.8,-,N/A,,Clear,200,2013-01-26 15:53:00
9:53 AM,21.9,17.1,82,30.07,10.0,West,3.5,-,N/A,,Clear,280,2013-01-26 16:53:00
10:53 AM,28.9,19.9,69,30.04,10.0,ENE,3.5,-,N/A,,Clear,60,2013-01-26 17:53:00
11:53 AM,30.0,21.0,69,30.00,10.0,Calm,Calm,-,N/A,,Clear,0,2013-01-26 18:53:00
12:53 PM,34.0,23.0,64,29.94,10.0,Calm,Calm,-,N/A,,Clear,0,2013-01-26 19:53:00
1:53 PM,36.0,24.1,62,29.92,10.0,Calm,Calm,-,N/A,,Clear,0,2013-01-26 20:53:00
2:53 PM,39.9,23.0,51,29.87,10.0,Calm,Calm,-,N/A,,Clear,0,2013-01-26 21:53:00
3:53 PM,35.1,26.1,70,29.89,10.0,NE,4.6,-,N/A,,Clear,40,2013-01-26 22:53:00
4:53 PM,32.0,25.0,75,29.87,10.0,Calm,Calm,-,N/A,,Clear,0,2013-01-26 23:53:00
5:53 PM,30.9,24.1,76,29.88,10.0,Calm,Calm,-,N/A,,Clear,0,2013-01-27 00:53:00
6:53 PM,30.9,24.1,76,29.87,10.0,Calm,Calm,-,N/A,,Clear,0,2013-01-27 01:53:00
7:53 PM,25.0,21.0,85,29.87,10.0,WNW,3.5,-,N/A,,Clear,300,2013-01-27 02:53:00
8:53 PM,24.1,21.0,88,29.85,10.0,Calm,Calm,-,N/A,,Clear,0,2013-01-27 03:53:00
9:53 PM,24.1,21.0,88,29.83,10.0,Calm,Calm,-,N/A,,Clear,0,2013-01-27 04:53:00
10:53 PM,21.0,19.0,92,29.82,10.0,Calm,Calm,-,N/A,,Clear,0,2013-01-27 05:53:00
11:53 PM,26.1,21.9,84,29.80,10.0,South,4.6,-,N/A,,Clear,180,2013-01-27 06:53:00